Weather History for CWKG - February, 2013

Change the Weather History Date:

Saturday, February 23, 2013

  Actual Average Record
Temperature  
Mean Temperature 27 °F -  
Max Temperature 34 °F - - ()
Min Temperature 20 °F - - ()
Degree Days  
Heating Degree Days 38    
Moisture  
Dew Point 14 °F    
Average Humidity 64    
Maximum Humidity 89    
Minimum Humidity 21    
Precipitation  
Precipitation 0.20 in - - ()
Sea Level Pressure  
Sea Level Pressure 30.26 in    
Wind  
Wind Speed 3 mph ()    
Max Wind Speed 7 mph    
Max Gust Speed -    
T = Trace of Precipitation, MM = Missing Value Source: Averaged Metar Reports

Daily Weather History Graph

Daily Weather History Graph

Search for Another Location

Airport or City:

Trip Planner

Search our weather history database for the weather conditions in past years. The results will help you decide how hot, cold, wet, or windy it might be!

Date:

Astronomy

Feb. 23, 2013 Rise Set
Actual Time 7:07 AM AST 6:01 PM AST
Civil Twilight 6:38 AM AST 6:30 PM AST
Nautical Twilight 6:04 AM AST 7:04 PM AST
Astronomical Twilight 5:31 AM AST 7:37 PM AST
Moon 4:04 PM AST (2/23) 5:31 AM AST (2/23)
Length of Visible Light 11h 52m
Length of Day
10h 53m
Waxing Gibbous, 95% of the Moon is Illuminated
Feb 23
Waxing Gibbous
Feb 25
Full
Mar 4
Last Quarter
Mar 11
New
Mar 19
First Quarter

Hourly Weather History & Observations

Time (AST) Temp. Windchill Dew Point Humidity Pressure Visibility Wind Dir Wind Speed Gust Speed Precip Events Conditions
12:00 AM 22.8 °F 18.2 °F 17.6 °F 80% 30.33 in - NE 3.5 mph - N/A   Unknown
1:00 AM 22.5 °F - 17.1 °F 80% 30.32 in - ENE 2.3 mph - N/A   Unknown
2:00 AM 22 °F - 17 °F 71% 30.33 in - ENE 3.5 mph - -  
2:00 AM 22.1 °F 17.4 °F 16.5 °F 79% 30.33 in - ENE 3.5 mph - N/A   Unknown
3:00 AM 21.7 °F - 16.2 °F 79% 30.32 in - NE 2.3 mph - N/A   Unknown
4:00 AM 21.6 °F 16.8 °F 15.6 °F 78% 30.32 in - NE 3.5 mph - N/A   Unknown
5:00 AM 21.4 °F 16.6 °F 15.8 °F 79% 30.31 in - NE 3.5 mph - N/A   Unknown
6:00 AM 21.0 °F 16.2 °F 14.9 °F 77% 30.31 in - NE 3.5 mph - N/A   Unknown
7:00 AM 20.5 °F - 14.7 °F 78% 30.32 in - ENE 2.3 mph - N/A   Unknown
8:00 AM 20 °F - 14 °F 67% 30.33 in - NNE 3.5 mph - -  
8:00 AM 20.5 °F 15.6 °F 13.6 °F 75% 30.33 in - NNE 3.5 mph - N/A   Unknown
9:00 AM 21.7 °F - 12.4 °F 67% 30.32 in - NNE 2.3 mph - N/A   Unknown
10:00 AM 24.3 °F - 11.3 °F 58% 30.32 in - East 2.3 mph - N/A   Unknown
11:00 AM 26.6 °F 21.2 °F 12.2 °F 55% 30.29 in - East 4.6 mph - N/A   Unknown
12:00 PM 29.1 °F 23.0 °F 11.1 °F 47% 30.27 in - ESE 5.8 mph - N/A   Unknown
1:00 PM 30.7 °F 27.3 °F 8.1 °F 39% 30.25 in - NNE 3.5 mph - N/A   Unknown
2:00 PM 33 °F - 8 °F 21% 30.23 in - WSW 4.6 mph - -  
2:00 PM 31.5 °F 26.8 °F 8.1 °F 37% 30.23 in - WSW 4.6 mph - N/A   Unknown
3:00 PM 34.9 °F 30.8 °F 9.3 °F 35% 30.21 in - SSW 4.6 mph - N/A   Unknown
4:00 PM 33.8 °F - 11.7 °F 40% 30.19 in - East 2.3 mph - N/A   Unknown
5:00 PM 34.0 °F 31.0 °F 10.6 °F 38% 30.19 in - WSW 3.5 mph - N/A   Unknown
6:00 PM 29.8 °F 26.3 °F 14.5 °F 53% 30.20 in - SSW 3.5 mph - N/A   Unknown
7:00 PM 27.5 °F 21.1 °F 14.2 °F 57% 30.19 in - South 5.8 mph - N/A   Unknown
8:00 PM 26 °F - 19 °F 65% 30.19 in - SSW 6.9 mph - -  
8:00 PM 25.9 °F 18.2 °F 19.0 °F 75% 30.19 in - SSW 6.9 mph - N/A   Unknown
9:00 PM 24.4 °F 18.6 °F 19.2 °F 81% 30.18 in - South 4.6 mph - N/A   Unknown
10:00 PM 23.0 °F 18.4 °F 19.2 °F 85% 30.18 in - South 3.5 mph - N/A   Unknown
11:00 PM 21.7 °F 15.5 °F 18.9 °F 89% 30.15 in - South 4.6 mph - N/A   Unknown